Flag for Switzerland Weather past 2 weeks in Horw, Lucerne, Switzerland

Now
35 °F

Chilly.


Feels Like: 35 °F
Forecast: 37 / 70 °F
Wind: 2 mph from West

Location: Giswil

Current Time: Apr 21, 2015 at 5:49:23 AM

Latest Report: Apr 21, 2015 at 4:00 AM


Visibility: N/A

Pressure: 30.36 "Hg

Humidity: 93%

Dew point: 33 °F

Location of HorwLocation

Historic Weather in Horw — Graph

°F

Horw temperature yesterday

Maximum temperature yesterday: 63 °F (at 5:00 PM)
Minimum temperature yesterday: 34 °F (at 6:00 AM)
Average temperature yesterday: 47 °F

Past Weeks' High & Low Weather Summary

 TemperatureHumidityPressure
High73 °F (Apr 15, 5:00 PM)100% (Apr 18, 2:00 AM)30.63 "Hg (Apr 18, 2:00 AM)
Low24 °F (Apr 6, 7:00 AM)24% (Apr 9, 5:00 PM)29.93 "Hg (Apr 17, 5:00 PM)
Average48 °F71%30.28 "Hg
* Reported Apr 6 4:00 AM — Apr 21 4:00 AM, Horw, Weather by CustomWeather, © 2015

Note: Actual official high and low records may vary slightly from our data, if they occured in-between our weather recording intervals... More about our weather records

Advertising

Horw weather history for previous 24 hours

 ConditionsComfort  
Time TempWeatherWind HumidityBarometerVisibility
4:00 AM
Tue, Apr 21
35 °FChilly.2 mph93%30.36 "HgN/A
3:00 AM35 °FChilly.1 mph94%30.37 "HgN/A
2:00 AM36 °FChilly.2 mph91%30.36 "HgN/A
1:00 AM37 °FChilly.1 mph91%30.35 "HgN/A
12:00 AM38 °FChilly.2 mph89%30.34 "HgN/A
11:00 PM
Mon, Apr 20
42 °FQuite cool.1 mph80%30.32 "HgN/A
10:00 PM49 °FCool.5 mph61%30.28 "HgN/A
9:00 PM47 °FCool.3 mph76%30.27 "HgN/A
8:00 PM56 °FRefreshingly cool.3 mph52%30.21 "HgN/A
7:00 PM61 °FRefreshingly cool.3 mph42%30.17 "HgN/A
6:00 PM62 °FMild.6 mph40%30.16 "HgN/A
5:00 PM63 °FMild.7 mph41%30.15 "HgN/A
4:00 PM62 °FRefreshingly cool.9 mph46%30.16 "HgN/A
3:00 PM62 °FRefreshingly cool.2 mph45%30.17 "HgN/A
2:00 PM60 °FRefreshingly cool.3 mph49%30.19 "HgN/A
1:00 PM58 °FRefreshingly cool.5 mph53%30.19 "HgN/A
12:00 PM55 °FCool.2 mph57%30.22 "HgN/A
10:00 AM49 °FCool.2 mph75%30.23 "HgN/A
9:00 AM46 °FCool.1 mph86%30.23 "HgN/A
8:00 AM37 °FChilly.No wind97%30.25 "HgN/A
7:00 AM34 °FChilly.1 mph99%30.25 "HgN/A
6:00 AM34 °FChilly.1 mph99%30.24 "HgN/A
Weather by CustomWeather, © 2015

See weather overviewHow to use our weather pages